[[{"header":{"parameterUnit":"m.s-1","parameterCategory":1,"la1":30.2991,"la2":30.254,"lo1":-89.0895,"lo2":-89.0444,"dy":0.0017,"dx":0.0017,"nx":28,"ny":28,"refTime":"2025-12-16T09:00:00:Z","depth":0,"parameterNumber":2,"parameterNumberName":"U-component_of_WINDS"},"data":[0,0,0,0,0,0,0,0,0,0,0,0,0,0,0,0,0,0,0,0,0,0,0,0,0,0,0,0,0,0,0,0,0,0,0,0,0,0,0,0,0,0,0,0,0,0,0,0,0,0,0,0,0,0,0,0,0,0,-2.5079,-2.508,0,-2.5175,-2.5176,-2.5177,-2.5106,-2.5103,-2.51,-2.5097,-2.52,-2.5206,-2.5212,0,0,0,0,0,0,0,0,0,0,0,0,0,-2.484,-2.4844,-2.5079,-2.508,-2.5081,-2.5175,-2.5176,-2.5178,-2.5107,-2.5103,-2.5099,-2.5095,-2.5199,-2.5205,-2.5212,0,0,0,0,0,0,0,0,0,0,0,0,0,-2.4941,-2.4846,-2.5079,-2.5057,-2.5056,-2.5175,-2.5176,-2.5178,-2.5107,-2.5103,-2.5098,-2.5094,-2.5196,-2.5205,-2.5213,-2.536,0,0,-2.5239,-2.5243,0,0,0,0,0,0,0,0,-2.4935,-2.495,-2.5059,-2.5059,-2.5058,-2.5124,-2.513,-2.5239,-2.5109,-2.5088,-2.5097,-2.5091,-2.5179,-2.5189,-2.5217,-2.5364,-2.5369,-2.524,-2.5245,-2.5249,-2.5251,0,0,0,0,0,0,0,-2.4928,-2.4945,-2.5117,-2.5061,-2.506,-2.5044,-2.5054,-2.515,-2.5159,-2.509,-2.5085,-2.5097,-2.5178,-2.5209,-2.5219,-2.537,-2.524,-2.5247,-2.5252,-2.5256,-2.5646,-2.5651,0,0,0,0,0,0,-2.4922,-2.494,-2.5114,-2.512,-2.4983,-2.5053,-2.5063,-2.5107,-2.5158,-2.5161,-2.5101,-2.5093,-2.5197,-2.5209,-2.5222,-2.5399,-2.5249,-2.5256,-2.5261,-2.564,-2.5647,-2.5652,0,0,0,0,0,0,-2.4918,-2.4939,-2.511,-2.5029,-2.5049,-2.5062,-2.5112,-2.5112,-2.5143,-2.5166,-2.5168,-2.5131,-2.5194,-2.521,-2.5326,-2.5402,-2.526,-2.5268,-2.5634,-2.5642,-2.565,-2.5753,0,0,0,0,0,0,-2.4911,-2.4937,-2.4992,-2.503,-2.5054,-2.5211,-2.5117,-2.5117,-2.5157,-2.5148,-2.5195,-2.5198,-2.5191,-2.5314,-2.5335,-2.5411,-2.5275,-2.5627,-2.5638,-2.5647,-2.5743,-2.5764,-2.5781,0,0,0,0,0,-2.4903,-2.5018,-2.4995,-2.5016,-2.5122,-2.5215,-2.5229,-2.5218,-2.5163,-2.5219,-2.5234,-2.5196,-2.539,-2.5326,-2.5349,-2.5429,-2.5623,-2.5635,-2.5646,-2.5735,-2.576,-2.5781,0,0,0,0,0,0,-2.4989,-2.5022,-2.4997,-2.5128,-2.5169,-2.5203,-2.5273,-2.5244,-2.5303,-2.5292,-2.5277,-2.5289,-2.5411,-2.5431,-2.536,-2.5575,-2.5498,-2.5515,-2.5557,-2.5581,-2.56,-2.5593,-2.5282,0,0,0,0,0,-2.5023,-2.5095,-2.512,-2.5233,-2.5255,-2.5261,-2.5301,-2.5289,-2.5332,-2.5349,-2.5373,-2.5417,-2.5488,-2.5536,-2.5602,-2.5745,-2.5756,-2.5812,-2.5831,-2.5846,-2.5862,-2.5941,-2.5967,-2.5691,-2.5691,-2.5691,0,0,-2.5095,-2.5122,-2.5168,-2.5251,-2.5282,-2.5358,-2.5276,-2.536,-2.5417,-2.5363,-2.5473,-2.5492,-2.5541,-2.5672,-2.5731,-2.5693,-2.594,-2.5861,-2.5873,-2.5881,-2.5956,-2.5982,-2.6006,-2.5699,-2.5698,-2.5696,0,0,-2.5265,-2.5291,-2.5389,-2.5421,-2.5468,-2.5471,-2.5495,-2.5534,-2.5544,-2.5654,-2.5615,-2.5684,-2.5806,-2.5843,-2.5878,-2.6063,-2.6032,-2.6086,-2.6186,-2.6264,-2.6286,-2.6305,-2.6373,-2.6398,-2.6101,-2.6101,-2.6101,0,-2.5348,-2.546,-2.5443,-2.5531,-2.557,-2.5522,-2.5622,-2.5655,-2.5722,-2.5751,-2.5707,-2.586,-2.589,-2.603,-2.6075,-2.6104,-2.6133,-2.6081,-2.6283,-2.6303,-2.632,-2.6386,-2.6411,-2.6107,-2.6106,-2.6106,-2.6105,0,-2.5562,-2.564,-2.5714,-2.5779,-2.5826,-2.5919,-2.5919,-2.5969,-2.5953,-2.5961,-2.6076,-2.611,-2.6183,-2.6215,-2.62,-2.6354,-2.6329,-2.6285,-2.6207,-2.6353,-2.6415,-2.6439,-2.6116,-2.6114,-2.6112,-2.6111,0,0,-2.579,-2.5844,-2.5872,-2.5901,-2.595,-2.6011,-2.6104,-2.6174,-2.6218,-2.6266,-2.6345,-2.645,-2.6409,-2.6449,-2.6438,-2.6507,-2.6654,-2.6454,-2.6455,-2.6492,-2.6829,-2.6863,-2.6892,-2.6632,-2.6637,-2.6641,-2.6825,0,-2.5963,-2.6122,-2.6111,-2.6262,-2.6336,-2.6292,-2.6373,-2.6413,-2.6423,-2.6489,-2.6501,-2.6577,-2.6516,-2.654,-2.6606,-2.6622,-2.6722,-2.6609,-2.6709,-2.6712,-2.6699,-2.6924,-2.696,-2.7132,-2.6849,-2.6853,-2.6856,0,-2.6188,-2.6243,-2.6401,-2.644,-2.647,-2.6543,-2.6608,-2.667,-2.6715,-2.6719,-2.6763,-2.6742,-2.6837,-2.6756,-2.689,-2.6813,-2.6853,-2.6868,-2.6874,-2.6885,-2.6794,-2.6943,-2.7187,-2.7214,-2.6893,-2.689,-2.6887,0,-2.6341,-2.6454,-2.6564,-2.6591,-2.6638,-2.6691,-2.6714,-2.6754,-2.6798,-2.6855,-2.6883,-2.6951,-2.6989,-2.7043,-2.7041,-2.6982,-2.7177,-2.7095,-2.7185,-2.7186,-2.723,-2.7227,-2.7486,-2.7252,-2.7252,-2.7251,-2.7251,0,-2.6538,-2.6637,-2.6634,-2.6702,-2.6812,-2.6798,-2.6909,-2.6926,-2.6963,-2.7035,-2.7001,-2.707,-2.7062,-2.7132,-2.7132,-2.7244,-2.726,-2.7268,-2.7267,-2.7272,-2.7271,-2.7299,-2.7288,-2.7258,-2.7257,-2.7255,-2.7254,0,-2.6728,-2.6729,-2.6847,-2.6882,-2.6894,-2.6974,-2.7005,-2.7071,-2.7078,-2.717,-2.7191,-2.7204,-2.7285,-2.7288,-2.7381,-2.7381,-2.7518,-2.7503,-2.7503,-2.75,-2.7591,-2.7583,-2.7878,-2.7917,-2.7656,-2.7659,-2.7661,0,-2.6854,-2.693,-2.6973,-2.7018,-2.7044,-2.7117,-2.7161,-2.7151,-2.7199,-2.7257,-2.7316,-2.7393,-2.7455,-2.7587,-2.7606,-2.7678,-2.7665,-2.7764,-2.7676,-2.7679,-2.767,-2.7666,-2.7675,-2.7782,-2.7784,-2.7787,-2.7789,0,-2.7079,-2.7077,-2.714,-2.7206,-2.726,-2.7311,-2.7358,-2.7398,-2.7393,-2.7449,-2.7531,-2.7578,-2.7673,-2.7752,-2.7822,-2.7847,-2.7819,-2.7816,-2.7841,-2.7848,-2.7846,-2.7851,-2.7552,-2.781,-2.7808,-2.7806,-2.7805,-2.7804,-2.7243,-2.7309,-2.735,-2.7423,-2.7457,-2.7503,-2.7567,-2.7582,-2.7649,-2.7725,-2.7715,-2.7807,-2.7852,-2.7943,-2.7974,-2.8047,-2.8014,-2.8049,-2.8059,-2.8068,-2.8079,-2.7832,-2.806,-2.8059,-2.8058,-2.8058,-2.8058,0,-2.7468,-2.7493,-2.756,-2.7627,-2.7686,-2.7651,-2.7702,-2.7754,-2.7835,-2.7878,-2.7939,-2.8034,-2.811,-2.8136,-2.821,-2.8264,-2.8253,-2.8284,-2.8281,-2.8288,-2.8103,-2.8075,-2.8292,-2.8292,-2.8292,-2.8292,-2.8291,-2.8291,-2.7592,-2.7702,-2.7705,-2.7832,-2.7856,-2.7944,-2.7977,-2.802,-2.8055,-2.8162,-2.8224,-2.8239,-2.8277,-2.8354,-2.8423,-2.8428,-2.8459,-2.8496,-2.8496,-2.8324,-2.8301,-2.8278,-2.8252,-2.8502,-2.8502,-2.8675,-2.8677,-2.8678]},{"header":{"parameterUnit":"m.s-1","parameterCategory":1,"la1":30.2991,"la2":30.254,"lo1":-89.0895,"lo2":-89.0444,"dy":0.0017,"dx":0.0017,"nx":28,"ny":28,"refTime":"2025-12-16T09:00:00:Z","depth":0,"parameterNumber":3,"parameterNumberName":"V-component_of_WINDS"},"data":[0,0,0,0,0,0,0,0,0,0,0,0,0,0,0,0,0,0,0,0,0,0,0,0,0,0,0,0,0,0,0,0,0,0,0,0,0,0,0,0,0,0,0,0,0,0,0,0,0,0,0,0,0,0,0,0,0,0,-1.3336,-1.3335,0,-1.3304,-1.3304,-1.3304,-1.3266,-1.3265,-1.3265,-1.3264,-1.3233,-1.3232,-1.3232,0,0,0,0,0,0,0,0,0,0,0,0,0,-1.3363,-1.3362,-1.3336,-1.3335,-1.3335,-1.3305,-1.3304,-1.3304,-1.3266,-1.3265,-1.3265,-1.3264,-1.3233,-1.3232,-1.3232,0,0,0,0,0,0,0,0,0,0,0,0,0,-1.3343,-1.3362,-1.3336,-1.3313,-1.331,-1.3305,-1.3304,-1.3304,-1.3266,-1.3265,-1.3264,-1.3264,-1.3233,-1.3232,-1.3232,-1.3247,0,0,-1.3231,-1.323,0,0,0,0,0,0,0,0,-1.3344,-1.3342,-1.3316,-1.3314,-1.3311,-1.3288,-1.3302,-1.3285,-1.3266,-1.3283,-1.3264,-1.3263,-1.3252,-1.325,-1.3246,-1.3246,-1.3244,-1.3231,-1.323,-1.323,-1.323,0,0,0,0,0,0,0,-1.3346,-1.3343,-1.3323,-1.3316,-1.3313,-1.3304,-1.33,-1.3299,-1.3273,-1.3281,-1.3279,-1.3275,-1.325,-1.3246,-1.3245,-1.3244,-1.3231,-1.323,-1.323,-1.323,-1.3253,-1.3254,0,0,0,0,0,0,-1.3351,-1.3345,-1.3324,-1.3322,-1.3326,-1.3304,-1.33,-1.3297,-1.3273,-1.3268,-1.3276,-1.3274,-1.3248,-1.3245,-1.3244,-1.3259,-1.323,-1.323,-1.323,-1.3252,-1.3253,-1.3254,0,0,0,0,0,0,-1.3351,-1.3349,-1.3326,-1.3333,-1.3329,-1.3304,-1.3301,-1.3296,-1.3292,-1.3269,-1.3264,-1.3277,-1.3247,-1.3244,-1.3246,-1.3257,-1.323,-1.3229,-1.3251,-1.3252,-1.3254,-1.329,0,0,0,0,0,0,-1.3352,-1.335,-1.3355,-1.3333,-1.3329,-1.3329,-1.3302,-1.3296,-1.3292,-1.3288,-1.3268,-1.3264,-1.3246,-1.3247,-1.3246,-1.3256,-1.3229,-1.325,-1.3252,-1.3253,-1.3288,-1.3292,-1.3296,0,0,0,0,0,-1.3353,-1.3367,-1.3356,-1.3354,-1.3335,-1.333,-1.3327,-1.3306,-1.3293,-1.3298,-1.3283,-1.3265,-1.3256,-1.3248,-1.3246,-1.3256,-1.3249,-1.3251,-1.3253,-1.3286,-1.3291,-1.3296,0,0,0,0,0,0,-1.3392,-1.3364,-1.3351,-1.3358,-1.3346,-1.3323,-1.3329,-1.3313,-1.3305,-1.3302,-1.3276,-1.3272,-1.3277,-1.3267,-1.3258,-1.3269,-1.325,-1.3252,-1.3275,-1.3281,-1.3285,-1.3287,-1.3228,0,0,0,0,0,-1.3401,-1.3399,-1.3374,-1.3383,-1.3378,-1.3355,-1.3351,-1.3336,-1.3323,-1.3318,-1.3303,-1.3291,-1.3285,-1.3283,-1.3276,-1.3286,-1.3281,-1.3292,-1.3297,-1.33,-1.3302,-1.3305,-1.331,-1.326,-1.326,-1.326,0,0,-1.342,-1.3405,-1.3405,-1.339,-1.338,-1.3377,-1.3351,-1.335,-1.3348,-1.3318,-1.3319,-1.3307,-1.3292,-1.3298,-1.3299,-1.3289,-1.3314,-1.3303,-1.3306,-1.3306,-1.3308,-1.3312,-1.3317,-1.3262,-1.3262,-1.3261,0,0,-1.3454,-1.3442,-1.3447,-1.3437,-1.3421,-1.3405,-1.3406,-1.3385,-1.3376,-1.3376,-1.3353,-1.3351,-1.3342,-1.3332,-1.3326,-1.3355,-1.3337,-1.3353,-1.3376,-1.338,-1.3383,-1.3387,-1.3396,-1.34,-1.3355,-1.3355,-1.3355,0,-1.348,-1.3476,-1.3452,-1.3453,-1.3447,-1.3419,-1.3424,-1.3415,-1.3397,-1.3394,-1.3383,-1.337,-1.3358,-1.3361,-1.3368,-1.3364,-1.3364,-1.3355,-1.3385,-1.3388,-1.3391,-1.3399,-1.3403,-1.3357,-1.3357,-1.3357,-1.3357,0,-1.3508,-1.3505,-1.3512,-1.3495,-1.349,-1.3492,-1.3469,-1.3467,-1.3451,-1.3437,-1.3437,-1.3421,-1.3411,-1.341,-1.3396,-1.341,-1.3404,-1.339,-1.337,-1.3398,-1.3405,-1.3409,-1.336,-1.3359,-1.3359,-1.3358,0,0,-1.3565,-1.3535,-1.3538,-1.3529,-1.3509,-1.3506,-1.3508,-1.3497,-1.3495,-1.3484,-1.3484,-1.3476,-1.3462,-1.3455,-1.3439,-1.3442,-1.3465,-1.3426,-1.3426,-1.3434,-1.3479,-1.349,-1.3494,-1.3453,-1.3454,-1.3454,-1.348,0,-1.3595,-1.3595,-1.3573,-1.3579,-1.3576,-1.3549,-1.355,-1.3537,-1.3524,-1.3519,-1.3504,-1.3499,-1.348,-1.3476,-1.3478,-1.3462,-1.3473,-1.346,-1.3452,-1.3452,-1.3457,-1.3498,-1.351,-1.3535,-1.3483,-1.3483,-1.3484,0,-1.3629,-1.3619,-1.3625,-1.3603,-1.3601,-1.3603,-1.359,-1.3586,-1.3571,-1.3561,-1.3553,-1.3534,-1.3533,-1.3515,-1.3513,-1.3504,-1.3499,-1.3491,-1.3491,-1.349,-1.347,-1.3497,-1.3543,-1.3547,-1.3488,-1.3488,-1.3488,0,-1.367,-1.3658,-1.3659,-1.3653,-1.3628,-1.363,-1.3619,-1.3603,-1.3598,-1.3587,-1.3584,-1.3573,-1.3568,-1.356,-1.3539,-1.3528,-1.3539,-1.3519,-1.353,-1.3531,-1.3534,-1.3534,-1.3579,-1.3532,-1.3532,-1.3532,-1.3532,0,-1.3705,-1.3709,-1.3677,-1.3678,-1.3682,-1.3657,-1.3661,-1.3648,-1.3634,-1.3632,-1.3608,-1.3606,-1.3579,-1.3574,-1.3557,-1.3557,-1.3555,-1.3547,-1.3542,-1.3549,-1.355,-1.3545,-1.3543,-1.3533,-1.3532,-1.3532,-1.3532,0,-1.3751,-1.373,-1.3729,-1.3705,-1.3699,-1.3703,-1.3683,-1.3682,-1.3667,-1.3664,-1.3662,-1.3637,-1.363,-1.3608,-1.3596,-1.3584,-1.3589,-1.3581,-1.3595,-1.3592,-1.3604,-1.3603,-1.3647,-1.3651,-1.3602,-1.3603,-1.3603,0,-1.3774,-1.3777,-1.3753,-1.3749,-1.374,-1.3735,-1.3729,-1.3705,-1.37,-1.3682,-1.3684,-1.3674,-1.3666,-1.3655,-1.3636,-1.3626,-1.3617,-1.3633,-1.3616,-1.3622,-1.3617,-1.3617,-1.3616,-1.3637,-1.3638,-1.3639,-1.3639,0,-1.3818,-1.3807,-1.38,-1.3789,-1.3782,-1.3772,-1.3761,-1.376,-1.3732,-1.3727,-1.372,-1.3713,-1.3699,-1.369,-1.3677,-1.3666,-1.3648,-1.3645,-1.3647,-1.3653,-1.366,-1.3656,-1.3605,-1.3644,-1.3643,-1.3643,-1.3643,-1.3643,-1.3853,-1.3854,-1.3837,-1.3829,-1.3818,-1.3808,-1.3806,-1.379,-1.3783,-1.377,-1.3756,-1.3749,-1.3733,-1.3713,-1.3703,-1.3697,-1.3688,-1.3691,-1.3691,-1.3692,-1.3695,-1.3662,-1.3695,-1.3695,-1.3695,-1.3694,-1.3694,0,-1.3895,-1.3883,-1.3876,-1.386,-1.3854,-1.3837,-1.3824,-1.382,-1.3814,-1.38,-1.3792,-1.3783,-1.3773,-1.3753,-1.3742,-1.3741,-1.3733,-1.3739,-1.3739,-1.3736,-1.3705,-1.3704,-1.3746,-1.3746,-1.3746,-1.3746,-1.3746,-1.3746,-1.3916,-1.3916,-1.3903,-1.3897,-1.3885,-1.3878,-1.3871,-1.3862,-1.385,-1.3841,-1.3833,-1.382,-1.3803,-1.379,-1.3781,-1.3775,-1.3772,-1.3781,-1.3773,-1.3744,-1.3739,-1.3734,-1.3733,-1.3781,-1.3781,-1.3804,-1.3805,-1.3805]}]]